KTYSKAVL

Guest
Details From KTYS - Mc Ghee Tyson
To KAVL - Asheville Rgnl
Flight Number -
Tags generated
Created
Modified
Stats Distance 77 nm / 142 km
Max Altitude 0 ft / 0 m
Waypoints 3
Social Downloads 0
Likes 0
Share VATSIM

Download

Looking for another format? Having issues loading an existing format? Contact us
Advertisement - Login to hide

Notes

None

Route

KTYS KNITS KAVL

ID Type Via Altitude Latitude Longitude Leg Dist Tot Dist Heading (true) Name
O KTYS APT - 0 ft / 0 m 35.81098˚ -83.99403˚ - 0 nm - Mc Ghee Tyson
KNITS FIX - 0 ft / 0 m 35.68367˚ -83.89957˚ 8 nm 8 nm 149° / 149° -
O KAVL APT - 0 ft / 0 m 35.43618˚ -82.54181˚ 67 nm 76 nm 102° / 103° Asheville Rgnl

Altitude Profile

Advertisement - Login to hide

KTYS

Details ICAO KTYS (TYS)
Name Mc Ghee Tyson
Region United States
Timezone America/New_York (UTC-4.0)
Stats Elevation 981 ft / 299 m (AMSL)
Location 35.810979° -83.994033°
Runways 2
Magnetic Variation 5.740° W

METAR

KTYS 202153Z 09007KT 10SM FEW055 SCT150 BKN250 29/19 A3006 RMK AO2 SLP167 T02890194

Decode

TAF

TAF KTYS 201720Z 2018/2118 30004KT P6SM SCT045 BKN180 FM202100 VRB03KT P6SM BKN050 FM210600 00000KT P6SM BKN150 FM211300 VRB04KT P6SM SCT070 BKN100

Decode

Departure Runways

ID Width Length Bearing (true) Bearing (mag) Surface Threshold Offset Overrun Length
05L 151 ft / 46 m 9,007 ft / 2,745 m 44.69° 50.43° Asphalt 0 ft / 0 m 1,001 ft / 305 m
05R 151 ft / 46 m 9,001 ft / 2,744 m 44.67° 50.41° Asphalt 0 ft / 0 m 180 ft / 55 m
23L 151 ft / 46 m 9,001 ft / 2,744 m 224.69° 230.43° Asphalt 420 ft / 128 m 164 ft / 50 m
23R 151 ft / 46 m 9,007 ft / 2,745 m 224.71° 230.45° Asphalt 0 ft / 0 m 968 ft / 295 m

KAVL

Details ICAO KAVL (AVL)
Name Asheville Rgnl
Region United States
Timezone America/New_York (UTC-4.0)
Stats Elevation 2,165 ft / 660 m (AMSL)
Location 35.436182° -82.541812°
Runways 1
Magnetic Variation 6.683° W

METAR

KAVL 202154Z AUTO 15005KT 10SM -RA OVC110 20/17 A3020 RMK AO2 RAB22 SLP207 P0000 T02000172

Decode

TAF

KAVL 202043Z 2021/2118 32005KT P6SM VCSH SCT035 FM202300 20003KT P6SM SCT045 BKN250 FM210600 00000KT 6SM BR BKN140 FM211000 00000KT 3SM BR BKN025 FM211400 VRB03KT P6SM BKN080 PROB30 2116/2118 4SM -TSRA OVC025CB

Decode

Destination Runways

ID Width Length Bearing (true) Bearing (mag) Surface Threshold Offset Overrun Length
16 151 ft / 46 m 8,015 ft / 2,443 m 159.91° 166.59° Asphalt 0 ft / 0 m 200 ft / 61 m
34 151 ft / 46 m 8,015 ft / 2,443 m 339.91° 346.59° Asphalt 0 ft / 0 m 200 ft / 61 m

Approach Navaids

Runway Type Ident Frequency Range Bearing (true) Bearing (mag) Slope Elevation
16 Localiser IIMO 110.90 MHz 18 nm / 33 km 159.91° 166.59° - 2,140 ft / 652 m (AMSL)
16 Glidescope IIMO 110.90 MHz 10 nm / 19 km 159.91° 166.59° 3.00° 2,165 ft / 660 m (AMSL)
34 Localiser IAVL 110.50 MHz 18 nm / 33 km 339.91° 346.59° - 2,165 ft / 660 m (AMSL)
34 Glidescope IAVL 110.50 MHz 10 nm / 19 km 339.91° 346.59° 2.80° 2,113 ft / 644 m (AMSL)

Popular Alternatives